Regional Weather Roundup
Issued by NWS Little Rock, AR

Home | Current Version | Previous Version | Graphics & Text | Print | Product List | Glossary Off
Versions: 1 2 3 4 5 6 7 8 9 10 11 12 13 14 15 16 17 18 19 20 21 22 23 24 25 26 27 28 29 30 31 32

000
ASUS44 KLZK 210805
RWRLZK

WEATHER ROUNDUP FOR ARKANSAS
NATIONAL WEATHER SERVICE LITTLE ROCK AR
300 AM CDT SAT APR 21 2018

NOTE: "FAIR" INDICATES FEW OR NO CLOUDS BELOW 12,000 FEET WITH NO
SIGNIFICANT WEATHER AND/OR OBSTRUCTIONS TO VISIBILITY.

ARZ001-003-010-029-210900-
NORTHWEST ARKANSAS

CITY           SKY/WX    TMP DP  RH WIND       PRES   REMARKS
FAYETTEVILLE   MOCLDY    47  31  53 CALM      30.19F
FORT SMITH     PTCLDY    51  36  56 NE3       30.17F
HARRISON       MOCLDY    47  27  45 E3        30.22F
BENTONVILLE    CLOUDY    53  27  36 E6        30.22S
ROGERS         MOCLDY    52  26  36 NE6       30.22S
SILOAM SPGS    CLOUDY    51  31  46 NE3       30.21R
HIGHFILL       MOCLDY    51  28  41 NE6       30.21R
$$

ARZ004-005-016-210900-
NORTH CENTRAL ARKANSAS

CITY           SKY/WX    TMP DP  RH WIND       PRES   REMARKS
BATESVILLE     PTCLDY    45  34  65 CALM      30.24S
FLIPPIN        CLOUDY    49  27  42 N3        30.24F
MTN HOME       CLOUDY    47  29  49 E5        30.23S
$$

ARZ040-041-210900-
WEST CENTRAL ARKANSAS

CITY           SKY/WX    TMP DP  RH WIND       PRES   REMARKS
MENA           CLEAR     43  43 100 CALM      30.16F
MOUNT IDA      CLEAR     44  39  82 CALM      30.14F
$$

ARZ009-017-025-026-028-210900-
NORTHEAST ARKANSAS

CITY           SKY/WX    TMP DP  RH WIND       PRES   REMARKS
CORNING        FAIR      50  36  57 NE6       30.27R
JONESBORO      FAIR      48  37  65 NE6       30.25R
NEWPORT        FAIR      48  37  65 E10       30.24R
WALNUT RIDGE   FAIR      45  37  73 NE8       30.25S
BLYTHEVILLE    FAIR      49  34  56 E8        30.25S
$$

ARZ022-023-033-042-044-210900-
CENTRAL ARKANSAS

CITY           SKY/WX    TMP DP  RH WIND       PRES   REMARKS
LITTLE ROCK    CLOUDY    50  40  68 NE5       30.18F
N LITTLE ROCK    N/A     48  38  68 E6        30.16F
JACKSONVILLE   CLOUDY    44  39  81 E7        30.18F
CONWAY         PTSUNNY   50  37  62 N5        30.18F
SEARCY         FAIR      50  37  61 NE7       30.21F
HOT SPRINGS    CLEAR     49  39  68 CALM      30.17S
RUSSELLVILLE   CLOUDY    45  36  70 CALM      30.18F
CLINTON        FAIR      39  36  87 CALM      30.22F
$$

ARZ036-210900-
EAST ARKANSAS

CITY           SKY/WX    TMP DP  RH WIND       PRES   REMARKS
WEST MEMPHIS   FAIR      54  35  48 E8        30.20F
$$

ARZ050-053-066-070-073-210900-
SOUTHWEST ARKANSAS

CITY           SKY/WX    TMP DP  RH WIND       PRES   REMARKS
CAMDEN         FAIR      45  39  81 CALM      30.14F
TEXARKANA      PTCLDY    45  42  89 E3        30.15F
EL DORADO      FAIR      46  43  89 CALM      30.15S
DE QUEEN       CLEAR     45  42  89 E3        30.13F
$$

ARZ056-057-069-210900-
SOUTHEAST ARKANSAS

CITY           SKY/WX    TMP DP  RH WIND       PRES   REMARKS
PINE BLUFF     FAIR      46  43  89 CALM      30.17F
STUTTGART      FAIR      52  41  66 E7        30.19F
MONTICELLO     FAIR      45  42  89 CALM      30.16F

$$






USA.gov is the U.S. government's official web portal to all federal, state and local government web resources and services.